Location: Hadra
(50.6940°N, 18.8355°E)
Time: 05:15:36
(UTC+00:00)

Daily predictions for brighter satellites

Satellite Brightness Start Highest point End
(mag) Time Altitude Azimuth Time Altitude Azimuth Time Altitude Azimuth
Cosmos 1992 Rocket 3.8 00:05:01 73° S 00:05:32 85° ESE 00:10:47 10° NNE
Cosmos 1726 Rocket 3.6 00:07:11 68° NW 00:07:11 68° NW 00:11:04 10° N
PSLV R/B 4.1 00:05:12 10° NNE 00:08:26 61° N 00:08:26 61° N
Meteor 1-26 Rocket 4.1 00:09:29 57° SSE 00:10:27 71° E 00:15:51 10° NNE
Cosmos 1536 3.2 00:09:10 10° N 00:12:17 54° NE 00:12:17 54° NE
ATLAS 2AS CENTAUR R/B 3.4 00:09:45 22° W 00:13:55 47° NNW 00:20:29 10° NE
IDEFIX/ARIANE 42P 3.1 00:10:22 10° NNE 00:15:26 51° E 00:16:41 42° SE
Cosmos 1953 Rocket 3.9 00:18:23 10° NNW 00:22:18 51° WNW 00:22:18 51° WNW
Nimbus 7 Rocket 4.5 00:18:07 10° NNE 00:24:12 74° ESE 00:26:11 45° S
USA 234 3.6 00:18:40 10° E 00:25:07 65° NNE 00:31:36 10° WNW
Cosmos 1980 Rocket 3.5 00:20:36 10° NW 00:24:20 25° W 00:24:20 25° W
Cosmos 1766 4.2 00:22:21 10° NNW 00:24:17 33° NNW 00:24:17 33° NNW
Cosmos 1707 3.8 00:31:24 31° N 00:31:24 31° N 00:33:05 10° N
Cosmos 44 Rocket 3.3 00:29:47 63° SSW 00:30:35 81° SE 00:35:48 10° NE
ADEOS II 4.5 00:27:53 10° NE 00:30:54 15° E 00:33:55 10° ESE
COSMOS 2406 3.3 00:32:29 48° S 00:34:03 71° ESE 00:39:48 10° NNE
MSX 3.9 00:28:59 10° NNE 00:34:45 73° ESE 00:36:45 42° S
Cosmos 1975 3.6 00:32:04 10° N 00:35:34 42° ENE 00:36:20 36° ESE
Cosmos 2369 4.2 00:31:32 10° NW 00:36:37 39° WSW 00:36:37 39° WSW
ADEOS Rocket 4.0 00:29:38 10° NNE 00:37:06 58° E 00:41:53 25° S
Cosmos 1634 Rocket 4.0 00:35:56 46° SW 00:37:48 70° WNW 00:43:59 10° N
SL-08 ROCKET BODY 4.3 00:31:50 10° NNW 00:37:50 78° W 00:40:00 42° S
ALOS 4.4 00:35:10 10° NE 00:38:26 19° E 00:41:29 11° SE
CZ-2D R/B 4.0 00:35:09 10° NE 00:39:21 24° E 00:43:17 11° SE
Cosmos 724 4.3 00:44:49 43° SW 00:46:56 78° NW 00:52:55 10° NE
Cosmos 2084 4.4 00:46:23 32° WNW 00:47:27 38° NW 00:51:21 10° NE
Cosmos 1607 3.9 00:47:22 42° SW 00:49:37 89° NW 00:55:55 10° NE
Cosmos 1354 Rocket 4.4 00:46:45 10° NNW 00:52:01 64° ENE 00:57:14 10° SE
Cosmos-2242 3.4 00:52:12 44° W 00:52:25 45° WNW 00:56:27 10° N
Cosmos 2360 Rocket 2.4 00:47:09 10° NNW 00:52:51 74° ENE 00:58:30 10° SE
Cosmos 1503 Rocket 3.9 00:48:10 10° NNW 00:53:29 89° ENE 00:56:50 23° SSE
Cosmos 2333 Rocket 2.1 00:48:13 10° NNW 00:53:52 72° WSW 00:57:05 27° SSE
FENGYUN 3A 3.7 00:49:05 10° NNE 00:54:32 79° ESE 00:56:44 38° S
USA 281 3.2 00:51:27 30° S 00:54:45 61° WSW 01:01:17 10° NNW
Cosmos 220 Rocket 3.8 00:56:20 61° S 00:56:54 74° ESE 01:00:56 10° NNE
Cosmos 2082 Rocket 2.9 00:59:24 30° WSW 01:01:43 45° NW 01:07:12 10° NNE
Cosmos 1842 2.8 01:02:44 67° NNW 01:02:44 67° NNW 01:05:38 10° N
Cosmos 540 Rocket 4.1 01:01:37 27° SSE 01:04:01 48° ESE 01:08:58 10° NNE
Meteor 2-2 Rocket 4.5 01:02:52 38° SW 01:04:44 54° WNW 01:10:15 10° N
Cosmos 2279 Rocket 4.1 01:03:59 36° SW 01:06:32 62° WNW 01:12:44 10° N
Meteor 2-9 Rocket 4.0 01:02:12 10° NNW 01:07:33 78° W 01:10:19 29° S
Cosmos 2278 3.7 01:01:57 10° NW 01:07:36 63° WSW 01:11:11 23° S
NPP 3.6 01:02:15 10° NNE 01:07:41 81° WNW 01:09:56 36° SSW
Cosmos 2322 Rocket 2.1 01:02:29 10° NNW 01:08:09 83° WSW 01:13:48 10° SSE
Cosmos 1486 Rocket 4.2 01:03:08 10° NNW 01:08:10 50° WSW 01:09:36 39° SSW
Resurs 1-4 Rocket 3.0 01:03:27 10° NNE 01:08:31 43° E 01:12:17 17° SSE
Cosmos 2221 2.3 01:07:40 48° S 01:08:46 86° E 01:12:56 10° N
USA 305 4.1 01:16:13 17° NE 01:16:13 17° NE 01:16:46 10° NE
ACS3 Solar Sail 2.6 01:10:35 10° N 01:15:59 36° WNW 01:18:33 25° WSW
NOSS 3-3 (A) 3.7 01:14:12 36° SW 01:16:33 88° NW 01:22:58 10° NE
Cosmos 1777 Rocket 4.2 01:13:46 10° NNW 01:18:49 47° WSW 01:20:41 33° SSW
Cosmos 2219 Rocket 2.3 01:16:30 10° NNW 01:22:10 77° ENE 01:27:49 10° SE
SL-16 R/B 2.6 01:17:44 10° NW 01:23:00 40° WSW 01:24:53 31° SSW
H-2A R/B 3.2 01:18:20 10° NNE 01:23:10 40° E 01:27:58 11° SSE
Meteor 1-11 Rocket 3.7 01:18:01 10° NNW 01:23:58 85° W 01:29:12 13° S
CZ-4C R/B 2.9 01:22:06 22° W 01:24:42 42° NNW 01:30:18 10° NE
Meteor 1-19 Rocket 4.1 01:22:10 28° SSW 01:25:10 88° W 01:30:49 10° NNE
Cosmos 1271 Rocket 2.4 01:27:38 51° SW 01:28:18 67° WNW 01:31:47 10° N
NOAA 11 4.1 01:23:25 10° NNE 01:28:53 85° WNW 01:32:03 26° SSW
Meteor 1-14 Rocket 4.5 01:24:14 10° NNW 01:29:45 50° W 01:32:37 26° SSW
USA 267 3.5 01:23:31 10° ENE 01:30:02 61° SE 01:34:01 25° SSW
SL-4 R/B 2.1 01:31:34 42° SSW 01:31:38 42° SSW 01:35:15 10° SE
Meteor 1-10 Rocket 4.2 01:29:04 23° S 01:32:44 89° ESE 01:38:36 10° NNE
Cosmos 2058 Rocket 4.5 01:32:04 22° W 01:33:06 24° WNW 01:36:41 10° NNW
NOSS 3-3 (C) 3.8 01:30:27 30° SW 01:33:20 82° NW 01:39:49 10° NE
Cosmos 2266 Rocket 4.1 01:29:19 10° NNW 01:35:17 54° W 01:39:09 22° SSW
Cosmos 1470 3.5 01:33:46 10° NNW 01:36:16 27° WNW 01:36:16 27° WNW
Gbstr 26 Del rocket 2.8 01:37:23 36° WSW 01:38:20 44° SSW 01:41:54 10° SE
USA 290 2.5 01:37:48 36° S 01:38:50 60° ESE 01:41:59 10° NNE
Cosmos 2333 4.3 01:43:03 10° NW 01:48:36 56° WSW 01:54:09 10° S
Cosmos 372 Rocket 4.0 01:43:26 10° NNW 01:48:39 83° ENE 01:53:46 10° SSE
DMSP B5D2-2 4.2 01:45:23 17° S 01:49:19 53° W 01:54:25 10° NNW
Cosmos 1655 Rocket 3.9 01:44:15 10° NNW 01:50:30 80° W 01:56:42 10° S
Cosmos 1812 Rocket 3.9 01:49:34 27° SW 01:51:32 47° WNW 01:55:45 10° N
NOSS 3-4 (A) 3.7 01:47:12 10° NW 01:53:51 74° SW 02:01:43 10° SSE
Meteor 2-20 Rocket 4.4 01:49:02 15° SSW 01:54:13 84° W 02:00:11 10° N
NOSS 3-4 (C) 3.8 01:47:44 10° NW 01:54:24 75° SW 02:02:17 10° SSE
IDEFIX/ARIANE 42P 3.7 01:50:16 10° N 01:54:39 29° WNW 01:57:22 18° WSW
Meteor 2-4 Rocket 3.8 01:52:15 10° S 01:57:35 70° E 02:02:55 10° NNE
Envisat 3.0 01:52:34 10° N 01:57:38 71° WNW 02:01:23 18° SSW
ISS -1.7 01:56:14 14° S 01:57:41 18° SE 02:00:04 10° E
Aureole 1 Rocket 3.1 01:55:49 10° NNW 01:59:52 61° WSW 02:04:59 10° S
JB-3 4.0 01:56:32 10° SSE 02:00:08 88° WSW 02:03:46 10° NNW
Cosmos 2084 Rocket 3.9 02:00:05 10° WNW 02:03:59 37° SW 02:07:53 10° SSE
Iridium 4 Rocket 3.7 02:03:00 20° SW 02:06:01 46° W 02:10:56 10° N
Cosmos 1461 3.8 02:03:16 14° S 02:06:05 35° ESE 02:09:31 10° NE
ATLAS 2AS CENTAUR R/B 4.4 02:00:38 10° WNW 02:06:25 28° N 02:12:09 10° NE
USA 234 3.2 02:01:43 10° SE 02:08:12 63° SW 02:14:43 10° WNW
H-2A R/B 2.7 02:06:25 20° SSW 02:08:29 37° W 02:11:51 10° NNW
Meteor 1-27 Rocket 3.8 02:03:30 13° SSW 02:08:46 75° WNW 02:14:43 10° N
Cosmos 1975 4.3 02:07:51 10° NW 02:10:14 17° W 02:10:36 16° W
ADEOS II 2.1 02:05:55 10° NNE 02:11:12 90° W 02:16:26 10° SSW
Cosmos 1842 Rocket 3.7 02:09:32 10° S 02:13:48 72° E 02:18:08 10° NNE
Cosmos 2297 Rocket 4.5 02:11:23 10° SSE 02:15:29 21° E 02:19:34 10° NE
ALOS 2.3 02:11:14 10° N 02:15:44 60° WNW 02:19:31 14° SSW
Cosmos 1238 Rocket 2.3 02:15:06 22° SW 02:16:39 47° WNW 02:19:35 10° N
Cosmos 1763 Rocket 4.1 02:13:16 17° SW 02:17:01 45° WNW 02:22:07 10° NNE
CZ-2D R/B 2.2 02:14:32 10° N 02:19:43 61° WNW 02:24:33 12° SSW
SL-16 R/B 2.7 02:14:36 10° SSE 02:20:52 79° ENE 02:27:09 10° NNW
COSMOS 2428 3.0 02:15:27 10° NNW 02:21:12 76° ENE 02:26:54 10° SE
ADEOS Rocket 4.2 02:15:25 10° N 02:22:19 42° WNW 02:28:49 12° SW
Cosmos 841 Rocket 3.8 02:19:11 10° S 02:24:16 65° ESE 02:29:25 10° NNE
Sich 1 3.0 02:21:12 10° N 02:25:23 83° E 02:29:32 10° SSE
Okean 3 Rocket 3.7 02:21:06 10° N 02:25:34 81° E 02:30:02 10° SSE
Cosmos 1758 3.8 02:25:28 10° N 02:29:05 57° ENE 02:32:39 10° SSE
Cosmos 1898 Rocket 3.5 02:24:33 10° NNW 02:29:40 63° WSW 02:34:45 10° S
Cosmos 1937 Rocket 3.4 02:29:02 10° NNW 02:34:16 77° WSW 02:39:24 10° SSE
Cosmos 1805 Rocket 4.1 02:30:14 10° N 02:34:38 62° ENE 02:38:57 10° SSE
Cosmos 2360 Rocket 3.4 02:32:02 10° NW 02:36:14 22° W 02:40:27 10° SSW
Cosmos 2333 Rocket 3.9 02:34:42 10° WNW 02:37:07 13° W 02:39:00 11° WSW
Alouette 2 Rocket 4.2 02:34:20 10° NNW 02:37:52 28° W 02:40:57 10° SSW
USA 305 2.6 02:39:26 10° NW 02:40:31 15° N 02:41:13 10° NNE
Meteor 1-18 Rocket 4.2 02:37:12 10° S 02:42:45 90° E 02:48:21 10° NNE
Meteor 2-10 Rocket 3.6 02:38:34 10° NNW 02:43:35 58° W 02:48:43 10° S
H-2A R/B 2.2 02:40:42 10° NNE 02:44:44 69° ESE 02:48:41 10° S
Cosmos 2082 Rocket 4.4 02:44:09 10° WNW 02:47:21 15° NNW 02:50:32 10° N
Resurs 1-4 Rocket 3.0 02:43:25 10° N 02:48:11 34° WNW 02:52:55 10° SW
Cosmos 1553 Rocket 4.0 02:42:01 10° SSW 02:48:12 72° WNW 02:54:32 10° N
In-Cosmos 22 4.3 02:43:51 10° S 02:49:08 78° E 02:54:32 10° NNE
USA 276 2.7 02:50:08 12° SSW 02:50:20 12° SSW 02:51:07 10° S
Cosmos 2322 Rocket 3.7 02:48:09 10° WNW 02:51:18 15° W 02:54:28 10° SW
BREEZE-M DEB (TANK) 3.9 02:50:46 10° W 02:54:01 56° SSW 03:04:34 10° ESE
Cosmos 1709 Rocket 4.3 02:49:45 10° N 02:55:53 74° ENE 03:01:59 10° SSE
CZ-2C R/B 3.2 02:51:15 10° NNE 02:56:03 53° E 03:00:40 10° S
Cosmos 1340 Rocket 3.8 02:52:52 10° N 02:56:31 49° ENE 03:00:11 10° SSE
H-2A R/B 2.8 02:57:48 10° N 03:02:25 35° WNW 03:07:07 10° SW
Cosmos 2219 Rocket 3.4 03:01:25 10° NW 03:05:28 21° W 03:09:31 10° SSW
Cosmos 2237 Rocket 2.6 03:00:30 10° NNW 03:06:13 74° ENE 03:11:54 10° SE
Cosmos 44 3.7 03:02:15 10° NW 03:07:42 86° NE 03:13:01 10° SE
Cosmos 1980 3.9 03:02:23 10° NNW 03:08:05 81° ENE 03:13:44 10° SSE
